Probability
10 13 19 23 26 16 13 13 16 10 16 13 13 13 13 10 6 3 3 6 6 13 6 10 3 6 3 3 0 3 6 3 3 0 0 0 0 0 0 0 0 0 3
13 19 26 29 23 23 16 16 19 13 10 16 10 10 6 6 6 10 10 6 6 13 13 3 3 3 3 3 3 0 0 0 0 0 0 0 0 0 0 0 0 0 0
16 23 26 32 23 26 26 23 16 10 6 10 16 13 10 10 10 6 6 3 3 6 10 6 3 3 3 3 3 3 3 3 3 0 0 0 0 0 0 0 0 0 0
23 19 23 26 32 29 29 19 6 6 10 6 13 19 13 13 13 6 6 3 3 0 3 3 0 3 3 3 3 3 3 3 3 3 0 0 0 0 0 0 0 0 0
26 23 23 29 35 35 26 13 6 10 13 13 16 13 10 13 10 3 6 3 3 3 3 3 3 0 0 3 3 3 3 3 3 3 3 0 0 0 0 3 0 0 0
29 32 35 32 35 29 19 19 13 6 10 10 13 10 13 10 3 3 3 3 0 0 0 0 0 0 0 0 3 3 3 3 3 3 3 3 3 0 0 3 3 3 3
32 39 39 35 39 32 29 29 16 13 16 13 16 13 10 6 6 6 0 0 0 0 0 3 0 0 0 3 3 3 3 3 3 3 3 3 3 3 3 3 3 3 3
32 39 45 42 39 35 35 32 32 23 16 16 13 13 10 6 3 3 3 0 0 0 0 3 3 3 3 3 3 3 3 3 3 3 3 3 3 3 3 3 3 3 3
35 39 35 39 39 39 35 39 29 23 16 13 23 13 10 6 10 6 6 3 3 3 6 6 6 3 3 3 0 0 0 0 0 0 0 0 0 0 0 0 3 3 0
39 35 35 32 35 35 32 32 26 19 10 16 16 19 13 13 13 13 10 10 6 3 13 13 6 3 3 3 0 0 0 0 0 0 0 0 0 0 0 0 0 0 0
52 39 35 32 29 29 23 32 23 19 19 13 16 19 13 13 10 10 13 16 16 13 10 6 6 3 0 0 0 0 0 0 0 0 0 0 0 0 0 0 0 0 0
42 39 32 32 32 29 23 19 23 16 16 16 13 10 13 10 10 13 13 13 10 6 6 3 0 3 3 0 0 0 0 0 0 0 0 0 0 0 0 0 0 0 0
42 42 39 29 29 26 19 16 19 13 19 19 16 13 16 16 13 13 13 6 6 6 3 3 3 3 0 0 0 0 0 0 0 0 0 0 0 0 0 0 0 0 0
42 39 32 32 26 23 23 19 19 19 16 19 19 16 16 16 13 10 10 6 3 3 3 3 3 3 3 3 3 0 0 0 0 0 0 0 0 0 0 0 0 0 0
48 45 35 42 32 32 26 26 23 16 16 16 16 16 16 6 6 6 10 3 3 3 3 3 3 3 3 3 3 3 3 0 0 0 0 0 0 0 0 0 0 0 0
48 45 32 35 29 32 29 23 19 16 16 16 16 10 10 10 6 6 3 3 3 3 3 3 3 3 3 0 0 0 3 0 0 0 0 0 0 0 0 0 0 0 0
42 39 29 29 26 23 19 16 16 16 13 13 10 10 10 10 6 3 0 0 0 0 0 0 0 0 0 0 0 0 0 0 0 0 0 0 0 0 0 0 0 0 0
42 35 32 26 23 23 6 10 10 13 13 10 10 10 10 10 3 0 0 0 0 0 0 0 0 0 0 0 0 0 0 0 0 0 0 0 0 0 0 0 0 0 0
39 32 29 26 23 10 6 10 10 10 6 6 10 10 10 6 3 0 0 0 0 0 0 0 0 0 0 0 0 0 0 0 0 0 0 0 0 0 0 0 0 0 0
35 29 32 23 19 13 10 10 10 6 6 6 6 6 6 3 0 0 0 0 0 0 0 0 0 0 0 0 0 0 0 0 0 0 0 0 0 0 0 0 0 0 0
29 29 26 19 16 13 10 13 13 10 6 6 6 6 6 6 0 0 0 0 0 0 0 0 0 0 0 0 0 0 0 0 0 0 0 0 0 0 0 0 0 0 0
23 23 23 16 10 6 6 10 10 6 6 6 3 3 0 0 0 0 0 0 0 0 0 0 0 0 0 0 0 0 0 0 0 0 0 0 0 0 0 0 0 0 0
23 19 13 6 6 6 6 13 10 6 3 3 3 3 0 0 0 0 0 0 0 0 0 0 0 0 0 0 0 0 0 0 0 0 0 0 0 0 0 0 0 0 0
19 10 10 6 3 3 6 6 3 3 0 3 3 0 0 0 0 0 0 0 0 0 0 0 0 0 0 0 0 0 0 0 0 0 0 0 0 0 0 0 0 0 0
16 10 10 6 10 6 3 0 0 0 3 0 0 0 0 0 0 0 0 0 0 0 0 0 0 0 0 0 0 0 0 0 0 0 0 0 0 0 0 0 0 0 0
6 3 6 6 3 3 0 0 0 0 3 0 0 0 0 0 0 0 0 0 0 0 0 0 0 0 0 0 0 0 0 0 0 0 0 0 0 0 0 0 0 0 0
Height
5915 5914 5912 5911 5909 5907 5905 5904 5903 5902 5901 5900 5899 5898 5898 5897 5897 5896 5896 5896 5896 5896 5896 5896 5897 5897 5898 5898 5898 5898 5899 5899 5899 5899 5899 5898 5898 5898 5897 5897 5897 5896 5896
5915 5914 5913 5911 5909 5907 5906 5904 5903 5901 5900 5900 5899 5899 5898 5897 5896 5896 5895 5894 5894 5894 5894 5895 5895 5896 5896 5897 5897 5897 5897 5897 5897 5897 5897 5897 5897 5896 5895 5895 5894 5894 5894
5916 5914 5913 5911 5909 5907 5906 5904 5903 5901 5900 5899 5898 5898 5897 5896 5896 5895 5894 5894 5893 5892 5893 5893 5894 5895 5895 5895 5896 5896 5896 5896 5895 5895 5895 5895 5894 5893 5893 5892 5892 5891 5891
5916 5914 5913 5911 5909 5907 5905 5904 5903 5901 5900 5899 5898 5897 5896 5895 5895 5894 5893 5892 5892 5891 5891 5892 5892 5893 5893 5894 5894 5894 5893 5893 5893 5892 5892 5892 5891 5890 5890 5889 5888 5888 5887
5916 5914 5912 5910 5908 5907 5905 5904 5902 5901 5900 5898 5897 5896 5895 5895 5894 5893 5892 5892 5891 5891 5891 5891 5891 5891 5892 5892 5892 5892 5891 5891 5890 5889 5889 5888 5888 5887 5886 5886 5885 5884 5883
5915 5914 5912 5911 5909 5907 5905 5903 5902 5900 5899 5898 5897 5896 5895 5894 5893 5892 5892 5891 5891 5890 5890 5890 5890 5890 5890 5890 5890 5889 5889 5888 5887 5887 5886 5885 5884 5884 5883 5882 5881 5880 5879
5915 5914 5913 5911 5909 5907 5905 5903 5901 5900 5899 5897 5896 5895 5894 5893 5892 5891 5891 5890 5890 5889 5889 5889 5889 5888 5888 5888 5887 5887 5886 5885 5884 5884 5883 5882 5881 5880 5879 5878 5877 5876 5875
5915 5914 5912 5911 5909 5907 5905 5903 5901 5899 5898 5896 5895 5894 5893 5892 5891 5890 5889 5889 5888 5888 5887 5887 5887 5886 5886 5885 5885 5884 5883 5882 5881 5880 5879 5878 5877 5876 5875 5873 5872 5871 5870
5914 5913 5912 5911 5909 5906 5904 5902 5900 5899 5897 5896 5894 5893 5892 5890 5889 5889 5888 5887 5887 5886 5886 5885 5885 5884 5884 5883 5882 5881 5880 5879 5878 5877 5876 5874 5873 5872 5871 5869 5867 5867 5865
5913 5912 5911 5910 5908 5906 5904 5902 5900 5898 5896 5895 5893 5892 5891 5889 5888 5887 5886 5886 5885 5884 5883 5883 5882 5882 5881 5880 5879 5878 5877 5875 5874 5873 5872 5870 5869 5867 5866 5864 5862 5861 5860
5912 5911 5910 5908 5907 5905 5903 5901 5900 5898 5895 5893 5892 5890 5889 5888 5887 5886 5885 5884 5883 5882 5881 5880 5879 5879 5878 5877 5876 5875 5873 5872 5870 5869 5868 5866 5864 5863 5861 5859 5857 5856 5854
5910 5909 5908 5907 5905 5904 5902 5900 5899 5897 5895 5892 5891 5889 5888 5887 5885 5884 5883 5882 5881 5880 5879 5878 5877 5876 5875 5874 5873 5871 5870 5868 5867 5865 5863 5862 5860 5858 5856 5854 5852 5850 5849
5908 5907 5906 5905 5903 5902 5900 5899 5898 5896 5894 5892 5890 5888 5887 5885 5884 5883 5882 5880 5879 5878 5877 5875 5874 5873 5872 5871 5869 5868 5866 5864 5863 5861 5859 5857 5855 5853 5851 5849 5847 5845 5843
5906 5905 5904 5902 5901 5899 5898 5897 5896 5895 5893 5891 5889 5887 5885 5883 5882 5881 5880 5878 5877 5876 5874 5873 5872 5870 5869 5868 5866 5864 5863 5861 5858 5856 5854 5853 5851 5849 5847 5845 5842 5840 5838
5904 5903 5902 5900 5899 5898 5897 5895 5894 5893 5891 5890 5887 5885 5884 5882 5880 5879 5878 5876 5875 5873 5872 5870 5869 5868 5866 5864 5863 5861 5858 5856 5854 5852 5850 5848 5846 5844 5842 5839 5837 5835 5832
5901 5900 5898 5897 5896 5895 5894 5893 5892 5891 5889 5888 5886 5884 5882 5880 5878 5877 5876 5874 5873 5871 5869 5868 5866 5865 5863 5861 5859 5857 5855 5852 5850 5848 5845 5843 5841 5839 5837 5834 5832 5830 5827
5897 5896 5894 5894 5893 5892 5891 5890 5889 5888 5887 5885 5883 5882 5880 5879 5877 5875 5874 5872 5870 5868 5867 5865 5863 5862 5860 5858 5856 5853 5851 5848 5846 5843 5841 5839 5836 5834 5831 5829 5827 5824 5821
5893 5892 5891 5890 5890 5889 5888 5887 5886 5885 5884 5882 5881 5879 5878 5876 5874 5873 5871 5869 5867 5866 5864 5862 5860 5859 5857 5855 5852 5850 5847 5844 5841 5839 5837 5834 5831 5829 5826 5824 5821 5818 5815
5889 5889 5888 5888 5887 5886 5885 5884 5883 5882 5881 5880 5878 5876 5875 5873 5872 5870 5868 5866 5864 5863 5861 5859 5857 5855 5853 5851 5849 5846 5843 5840 5837 5835 5832 5829 5826 5824 5821 5818 5816 5813 5810
5885 5884 5884 5884 5883 5882 5881 5881 5879 5878 5877 5876 5875 5873 5871 5870 5868 5866 5865 5863 5861 5859 5858 5856 5854 5852 5850 5847 5845 5842 5839 5836 5833 5830 5828 5825 5822 5819 5816 5813 5810 5807 5804
5880 5880 5880 5879 5879 5878 5878 5876 5875 5874 5874 5872 5871 5869 5868 5866 5864 5863 5861 5859 5858 5856 5854 5852 5850 5848 5845 5843 5840 5838 5835 5832 5829 5826 5823 5820 5817 5814 5811 5808 5804 5801 5798
5875 5875 5875 5875 5874 5874 5873 5872 5869 5870 5869 5868 5867 5865 5863 5862 5860 5859 5857 5855 5853 5851 5850 5847 5845 5843 5841 5838 5836 5833 5830 5827 5824 5821 5818 5815 5812 5808 5805 5802 5799 5796 5792
5870 5870 5870 5870 5870 5869 5868 5866 5865 5865 5865 5864 5862 5860 5859 5857 5856 5854 5852 5851 5849 5847 5845 5843 5841 5839 5836 5834 5831 5828 5825 5822 5819 5816 5813 5809 5806 5803 5799 5796 5793 5789 5786
5864 5865 5865 5864 5864 5864 5863 5862 5861 5860 5859 5858 5857 5855 5854 5852 5851 5849 5847 5846 5844 5842 5840 5838 5836 5834 5831 5829 5826 5823 5820 5817 5814 5810 5807 5804 5800 5797 5794 5790 5787 5783 5779
5858 5858 5859 5858 5858 5857 5857 5856 5856 5854 5853 5852 5851 5850 5848 5847 5846 5844 5842 5841 5839 5837 5835 5833 5830 5828 5825 5823 5820 5817 5814 5811 5808 5805 5801 5798 5795 5791 5787 5784 5780 5777 5773
5851 5851 5852 5852 5851 5851 5850 5849 5848 5848 5847 5846 5845 5844 5843 5841 5840 5838 5837 5835 5833 5831 5829 5827 5824 5822 5819 5816 5814 5811 5808 5805 5802 5798 5795 5791 5788 5785 5781 5778 5774 5770 5766
Wind_Speed
10 10 10 10 10 10 9 8 7 6 5 4 4 3 3 3 3 4 4 4 4 4 4 5 5 5 6 5 5 5 6 6 7 8 8 9 9 10 10 10 10 10 10
10 10 10 11 10 10 9 8 7 6 5 5 4 4 3 3 3 4 4 4 5 5 6 5 5 5 6 6 6 6 7 8 9 9 10 11 11 11 11 12 13 13 13
10 10 11 11 11 10 9 9 8 7 6 5 5 5 4 4 4 4 5 5 6 6 5 5 5 6 6 7 7 8 9 9 10 11 11 12 13 13 14 14 14 15 15
10 10 11 11 10 9 9 9 8 8 7 6 6 5 5 5 4 4 4 5 5 4 4 5 6 7 7 8 9 10 10 11 12 12 13 14 14 15 16 16 17 17 17
8 9 10 10 10 10 9 8 8 8 8 7 6 6 5 5 5 5 5 4 4 4 5 5 6 7 8 9 10 10 11 12 13 13 14 14 15 15 16 17 18 18 19
8 8 9 9 10 11 9 8 8 8 7 7 6 6 6 6 5 6 5 5 5 5 6 6 7 7 8 9 10 11 12 13 14 14 15 15 16 17 17 18 18 19 20
8 9 9 10 11 11 10 9 8 8 7 7 7 7 7 6 5 5 6 6 6 6 7 7 8 9 9 10 11 12 13 14 15 16 16 17 17 17 18 18 19 20 21
8 9 9 10 11 10 10 9 9 8 8 7 7 8 8 7 7 6 6 7 7 7 8 8 9 10 10 10 11 13 14 15 15 16 17 18 18 19 19 20 20 20 20
9 9 9 11 10 10 9 9 9 8 8 8 8 8 8 8 7 8 7 6 7 8 8 9 9 9 10 11 12 13 13 14 15 15 16 18 19 19 19 20 21 21 21
9 9 10 10 10 11 10 10 10 9 8 8 8 8 8 8 7 7 7 7 7 8 8 9 9 10 11 12 12 13 15 15 16 17 17 18 19 19 20 21 21 21 22
9 9 10 10 10 10 10 10 11 10 9 8 9 8 8 8 8 8 8 8 8 9 9 10 10 11 12 13 14 15 15 16 17 17 18 18 19 19 20 21 21 22 22
9 10 11 11 11 11 10 11 11 11 10 9 9 9 9 9 9 8 8 9 9 10 10 10 11 12 13 14 15 15 16 17 17 18 18 19 19 20 20 21 21 22 23
9 11 12 12 11 11 11 10 11 11 10 9 9 9 9 9 9 8 8 9 10 11 11 12 12 12 13 14 15 15 16 17 17 18 19 19 19 20 21 22 22 23 23
12 12 12 11 11 11 11 10 10 10 10 10 11 11 10 9 9 9 9 10 10 11 11 12 12 12 13 14 15 15 16 18 19 19 20 20 20 21 21 22 23 23 23
13 12 13 13 12 12 11 11 10 11 11 11 11 12 11 10 9 9 10 10 11 11 11 12 12 13 13 14 16 16 17 18 19 20 20 20 20 21 21 22 23 23 23
14 15 15 14 13 12 12 12 11 11 12 12 12 12 11 11 11 11 11 12 12 12 12 12 13 14 15 16 17 18 18 19 19 19 20 20 20 21 22 22 23 23 23
15 16 15 15 14 13 11 11 11 11 12 13 13 13 12 12 12 12 12 13 13 14 14 14 14 15 16 17 18 18 19 19 19 20 20 21 21 22 22 22 23 23 23
15 16 14 14 14 14 12 12 12 12 13 14 13 13 13 14 14 13 14 14 14 14 14 15 15 15 16 17 17 19 20 20 20 20 21 22 22 22 23 23 24 24 24
16 16 16 16 16 15 14 13 12 13 14 13 14 14 15 15 14 14 15 15 15 15 16 16 16 16 17 17 18 19 19 20 21 21 22 22 22 23 23 24 24 24 25
17 18 17 17 16 15 14 15 15 15 15 15 15 16 16 15 15 15 15 15 16 16 17 17 17 18 18 18 19 20 20 20 21 21 22 23 23 24 24 24 25 25 25
19 19 18 17 16 16 15 15 15 15 16 17 17 16 16 16 16 16 16 16 17 17 17 18 18 19 19 20 20 21 21 21 22 22 22 23 24 24 24 25 25 25 26
20 20 19 18 18 18 18 18 16 17 17 18 18 18 17 17 17 17 17 18 18 18 19 19 19 19 20 21 21 22 22 22 23 23 24 24 24 25 25 25 26 26 27
22 21 20 20 20 20 20 19 19 19 19 19 18 18 18 18 18 19 19 19 19 19 19 20 20 20 21 22 22 23 23 24 24 25 25 25 25 26 26 26 27 27 27
24 23 22 22 21 22 22 21 21 20 20 19 19 19 19 19 19 20 20 20 20 20 20 20 21 22 22 23 24 24 24 25 26 25 25 26 26 27 27 27 27 27 28
25 24 24 24 24 23 24 23 22 21 21 20 20 20 20 20 20 20 21 21 20 21 21 22 22 23 23 24 25 25 25 26 26 27 27 27 27 27 28 28 28 29 29
25 25 25 24 24 24 24 24 23 22 22 21 21 21 21 21 21 21 22 21 22 22 23 23 23 24 24 25 26 26 26 27 28 28 28 28 28 28 28 28 29 29 29
Wind_Direction
18 20 20 18 15 15 17 20 18 18 14 2 355 358 348 328 316 320 308 305 295 271 271 273 265 264 262 263 265 273 272 273 277 278 280 283 284 283 282 282 281 281 282
17 15 14 11 9 8 5 8 10 11 13 8 2 355 339 320 303 306 302 298 278 268 273 273 268 266 266 263 267 274 279 280 281 281 280 282 285 283 283 283 279 281 282
11 9 6 3 3 2 359 357 359 1 4 1 349 341 334 321 305 296 289 285 281 273 263 262 263 262 266 267 272 276 282 283 283 283 280 279 282 284 285 285 282 279 280
5 4 1 357 356 356 355 357 357 354 353 351 344 338 331 324 312 302 291 283 288 284 269 258 258 264 269 271 272 276 280 280 282 283 280 279 281 282 283 283 283 280 279
357 2 3 1 360 358 355 356 352 351 349 348 344 340 334 325 317 307 300 290 286 287 269 264 262 263 268 271 275 279 283 283 282 282 283 284 283 283 282 281 282 280 280
345 352 357 2 1 355 354 354 352 350 348 346 343 335 330 325 313 308 301 295 286 278 269 267 269 272 278 277 277 280 284 285 284 284 284 284 284 287 286 284 282 281 282
336 341 345 350 352 352 352 354 353 348 342 338 336 329 321 314 312 312 303 299 288 278 277 273 272 275 279 279 280 283 286 287 286 286 285 284 284 286 287 286 287 286 284
336 335 337 341 344 344 346 350 348 343 339 334 331 326 319 312 310 309 303 298 295 285 279 277 276 276 279 282 283 286 290 288 287 287 284 284 285 286 288 288 288 289 288
331 333 333 334 338 341 344 343 340 342 340 338 332 327 324 321 317 309 301 296 297 289 283 282 280 281 283 286 289 291 292 291 291 289 288 289 289 289 291 290 289 288 286
318 326 327 328 334 340 344 342 343 345 339 333 329 326 325 328 325 314 302 298 299 298 291 285 286 287 289 292 294 294 295 295 295 295 296 296 295 294 292 293 292 290 289
310 317 322 325 327 333 340 338 337 340 342 337 332 326 321 322 320 313 311 309 305 305 302 295 291 291 292 294 295 295 295 295 298 299 298 298 297 296 297 297 295 293 291
308 308 310 313 319 326 331 330 329 331 333 331 332 334 330 325 321 314 310 312 306 302 300 296 293 293 291 292 293 295 296 297 298 299 300 300 299 298 299 299 297 295 292
303 305 310 312 317 323 326 322 322 323 329 333 330 329 327 322 319 316 314 312 308 303 301 300 297 295 294 295 296 297 299 301 302 301 299 300 301 300 299 299 299 298 296
297 301 307 314 317 320 324 322 318 319 324 332 331 328 324 319 318 318 315 312 311 309 304 304 303 301 300 300 303 304 303 303 302 302 301 301 301 301 300 299 299 299 298
288 292 301 307 310 315 316 314 312 316 321 325 327 326 326 323 320 317 317 316 313 312 312 309 307 308 307 306 304 305 305 304 303 303 303 302 302 302 301 300 300 300 300
286 291 298 301 303 308 309 309 312 313 315 318 320 323 322 319 317 319 321 320 318 315 313 310 309 308 308 307 306 306 306 307 305 305 305 305 303 303 304 304 303 302 302
288 294 294 296 297 300 300 301 307 310 313 314 313 315 316 317 317 317 315 316 316 314 314 311 310 308 308 309 309 311 311 308 307 307 306 306 305 305 305 305 305 305 305
286 292 289 294 295 294 291 295 301 308 308 309 308 309 311 313 313 313 313 313 314 313 312 312 311 310 310 311 313 314 313 310 308 308 308 308 306 307 306 305 305 305 306
283 289 291 289 291 291 289 291 297 301 303 305 308 310 309 310 311 310 311 311 312 312 309 308 307 308 309 311 312 313 313 310 308 308 308 308 308 307 307 306 305 305 306
281 286 289 291 292 295 293 293 296 298 300 305 307 308 310 307 306 308 308 309 309 308 307 307 306 307 308 309 309 310 311 311 310 310 310 310 309 309 307 306 305 306 307
280 283 286 289 293 295 296 296 297 298 301 303 305 306 308 306 304 306 307 307 307 306 306 306 306 308 307 308 309 309 309 310 311 312 312 312 311 309 307 306 307 307 307
277 282 283 285 288 291 293 295 295 296 299 300 301 300 302 303 302 304 305 305 304 303 304 305 306 307 308 308 308 309 309 309 309 310 311 312 312 311 309 309 309 308 308
276 280 282 284 285 288 292 293 295 293 293 294 296 297 299 300 301 303 303 303 303 303 303 305 307 307 308 309 309 309 308 309 309 309 310 311 312 312 312 311 311 310 310
274 277 281 283 283 285 288 290 292 290 290 292 294 296 297 297 298 300 302 302 302 303 304 305 306 307 308 308 308 308 308 308 309 310 310 311 312 312 311 311 312 312 312
270 273 276 278 279 282 285 286 289 289 287 289 291 293 294 295 295 297 298 298 300 302 302 303 304 305 306 307 307 307 308 309 309 309 309 310 310 310 311 311 312 313 313
266 270 272 274 277 280 284 285 287 286 285 287 289 291 292 293 295 296 296 295 297 298 300 302 303 303 304 304 306 306 307 308 309 309 309 309 309 310 310 311 313 314 314